BMCB-28 Weather Reports


time (UTC)temp
C
wind
direction
speed
KPH
gust
KPH
rain 1hr
cm
rain 24hr
cm
rain mn
cm
humidity
%
barometer
mb
20260506033045 7 0 0.0 0.0 0.08 1.24 0.23 10 1007.8
20260506032045 7 0 0.0 0.0 0.05 1.22 0.23 10 1007.8
20260506031046 7 0 0.0 0.0 0.05 1.22 0.23 10 1007.8
20260506025047 7 0 0.0 0.0 0.05 1.19 0.20 99 1007.9
20260506024044 7 0 0.0 0.0 0.05 1.17 0.18 99 1008.0
20260506023047 7 0 0.0 0.0 0.03 1.17 0.15 10 1008.1
20260506022045 7 0 0.0 0.0 0.03 1.17 0.15 10 1008.1
20260506021046 7 0 0.0 0.0 0.03 1.17 0.15 99 1008.1
20260506020046 7 0 0.0 0.0 0.03 1.17 0.15 99 1008.1
20260506015046 7 0 0.0 0.0 0.03 1.17 0.15 99 1008.2
20260506014048 7 0 0.0 0.0 0.00 1.17 0.15 10 1008.2
20260506013049 7 0 0.0 0.0 0.00 1.17 0.15 10 1008.3
20260506012044 7 0 0.0 0.0 0.00 1.17 0.15 10 1008.3
20260506011044 7 0 0.0 0.0 0.03 1.17 0.15 10 1008.4
20260506010043 7 0 0.0 0.0 0.03 1.17 0.15 10 1008.4
20260506004046 7 0 0.0 0.0 0.03 1.17 0.15 10 1008.5
20260506003047 7 0 0.0 0.0 0.03 1.17 0.15 10 1008.6
20260506002047 7 0 0.0 0.0 0.03 1.17 0.15 99 1008.7
20260506001046 7 0 0.0 0.0 0.05 1.17 0.15 99 1008.8
20260505235057 7 0 0.0 0.0 0.05 1.14 0.13 99 1009.0
20260505234055 7 0 0.0 0.0 0.05 1.14 0.13 99 1009.1
20260505233053 7 0 0.0 0.0 0.08 1.14 0.13 99 1009.1
20260505232057 7 0 0.0 0.0 0.10 1.14 0.13 99 1009.1
20260505231054 7 0 0.0 0.0 0.13 1.14 0.13 99 1009.1
20260505230058 7 0 0.0 0.0 0.10 1.12 0.10 99 1009.2
20260505225056 7 0 0.0 0.0 0.10 1.12 0.10 99 1009.3
20260505224056 7 0 0.0 0.0 0.13 1.09 0.08 99 1009.3
20260505223057 7 0 0.0 0.0 0.13 1.09 0.05 99 1009.3
20260505222055 7 0 0.0 0.0 0.13 1.07 0.05 99 1009.3
20260505221057 7 0 0.0 0.0 0.10 1.07 0.03 99 1009.3
20260505220054 7 0 0.0 0.0 0.08 1.04 0.00 99 1009.4
20260505215103 8 0 0.0 0.0 0.10 1.04 1.04 99 1009.4
20260505214104 8 0 0.0 0.0 0.13 1.04 1.04 99 1009.4
20260505213101 8 0 0.0 0.0 0.10 0.99 0.99 99 1009.5
20260505210058 8 0 0.0 0.0 0.10 0.97 0.97 99 1009.6
20260505205058 8 0 0.0 0.0 0.13 0.97 0.97 99 1009.6
20260505204058 8 0 0.0 0.0 0.13 0.94 0.94 99 1009.6
20260505203102 8 0 0.0 0.0 0.13 0.91 0.91 99 1009.6
20260505202101 8 0 0.0 0.0 0.13 0.89 0.89 99 1009.5
20260505200056 8 0 0.0 0.0 0.13 0.89 0.89 99 1009.5
20260505195056 8 0 0.0 0.0 0.13 0.89 0.86 99 1009.4
20260505194100 8 0 0.0 0.0 0.13 0.86 0.84 99 1009.4
20260505193101 8 0 0.0 0.0 0.13 0.84 0.81 99 1009.3
20260505192052 8 0 0.0 0.0 0.13 0.81 0.79 99 1009.2
20260505191058 8 0 0.0 0.0 0.13 0.79 0.79 98 1009.2
20260505190058 8 0 0.0 0.0 0.15 0.79 0.79 98 1009.2
20260505185056 9 0 0.0 0.0 0.15 0.79 0.76 98 1009.2
20260505183054 9 0 0.0 0.0 0.15 0.76 0.71 98 1009.1
20260505181055 9 0 0.0 0.0 0.15 0.71 0.69 98 1009.1
20260505175052 10 0 0.0 0.0 0.15 0.69 0.64 98 1009.1
20260505174052 10 0 0.0 0.0 0.18 0.69 0.61 98 1009.1
20260505173056 10 0 0.0 0.0 0.20 0.66 0.61 98 1009.1
20260505172049 10 0 0.0 0.0 0.23 0.64 0.58 98 1009.1
20260505171055 10 0 0.0 0.0 0.23 0.61 0.56 98 1009.1
20260505165054 10 0 0.0 0.0 0.36 0.58 0.51 98 1009.3
20260505164054 10 0 0.0 0.0 0.38 0.53 0.48 98 1009.3
20260505163056 10 0 0.0 0.0 0.36 0.51 0.43 98 1009.3
20260505162052 10 0 0.0 0.0 0.36 0.46 0.41 98 1009.3
20260505161054 10 0 0.0 0.0 0.33 0.43 0.36 97 1009.3
20260505153052 10 0 0.0 0.0 0.05 0.18 0.10 96 1009.5
20260505152055 11 0 0.0 0.0 0.05 0.18 0.08 95 1009.5
20260505151052 11 0 0.0 0.0 0.00 0.15 0.05 93 1009.4
20260505124049 13 0 0.0 0.0 0.00 0.33 0.05 82 1009.5
20260505123051 13 0 0.0 0.0 0.00 0.43 0.05 84 1009.5
20260505122045 13 0 0.0 0.0 0.00 0.43 0.05 85 1009.8
20260505121049 13 0 0.0 0.0 0.00 0.43 0.05 84 1009.9
20260505120047 13 0 0.0 0.0 0.00 0.43 0.05 84 1009.9
20260505115047 13 0 0.0 0.0 0.00 0.43 0.05 84 1009.8
20260505114049 13 0 0.0 0.0 0.00 0.43 0.05 84 1009.9
20260505113049 13 0 0.0 0.0 0.00 0.43 0.05 85 1009.9
20260505112050 13 0 0.0 0.0 0.00 0.43 0.05 85 1010.0
20260505111048 13 0 0.0 0.0 0.00 0.43 0.05 87 1010.1
20260505102100 12 0 0.0 0.0 0.00 0.43 0.05 89 1010.7
20260505101051 12 0 0.0 0.0 0.00 0.43 0.05 88 1010.7
20260505100047 12 0 0.0 0.0 0.00 0.43 0.05 88 1010.6
20260505095050 12 0 0.0 0.0 0.00 0.43 0.05 90 1010.6
20260505094050 12 0 0.0 0.0 0.00 0.43 0.05 89 1010.7
20260505092046 12 0 0.0 0.0 0.00 0.43 0.05 88 1010.7
20260505091049 12 0 0.0 0.0 0.00 0.43 0.05 89 1010.8
20260505085049 12 0 0.0 0.0 0.00 0.43 0.05 91 1011.0
20260505084047 11 0 0.0 0.0 0.00 0.43 0.05 92 1011.0
20260505083046 11 0 0.0 0.0 0.00 0.43 0.05 92 1011.2
20260505082050 11 0 0.0 0.0 0.00 0.43 0.05 92 1011.2
20260505081048 11 0 0.0 0.0 0.00 0.43 0.05 91 1011.2
20260505080047 11 0 0.0 0.0 0.00 0.43 0.05 93 1011.2
20260505075045 11 0 0.0 0.0 0.00 0.43 0.05 94 1011.3
20260505074044 11 0 0.0 0.0 0.00 0.43 0.05 95 1011.4
20260505073046 11 0 0.0 0.0 0.00 0.43 0.05 96 1011.4
20260505072045 11 0 0.0 0.0 0.00 0.43 0.05 96 1011.5
20260505071045 11 0 0.0 0.0 0.00 0.43 0.05 97 1011.5
20260505070039 10 0 0.0 0.0 0.00 0.43 0.05 97 1011.6
20260505065046 10 0 0.0 0.0 0.00 0.43 0.05 98 1011.6
20260505064044 10 0 0.0 0.0 0.00 0.43 0.05 99 1011.7
20260505063047 10 0 0.0 0.0 0.00 0.43 0.05 99 1011.7
20260505061047 10 0 0.0 0.0 0.00 0.43 0.05 10 1011.9
20260505054045 10 0 0.0 0.0 0.00 0.43 0.05 10 1011.8
20260505053045 10 0 0.0 0.0 0.00 0.43 0.05 10 1011.9
20260505052045 10 0 0.0 0.0 0.00 0.43 0.05 10 1011.9
20260505051047 10 0 0.0 0.0 0.00 0.43 0.05 10 1011.9
20260505041047 9 0 0.0 0.0 0.00 0.43 0.05 10 1011.9
20260505034048 9 0 0.0 0.0 0.00 0.43 0.05 10 1012.1